Location: Melbourne
(37.8170°S, 144.9670°E)
Time: 16:49:40
(UTC+10:00)

Daily predictions for brighter satellites

Satellite Brightness Start Highest point End
(mag) Time Altitude Azimuth Time Altitude Azimuth Time Altitude Azimuth
IRS-1A Rocket 4.4 17:46:30 10° SSE 17:52:18 67° ENE 17:57:54 10° N
Cosmos 773 Rocket 4.4 17:47:04 10° NNW 17:52:21 70° WSW 17:57:41 10° SSE
Cosmos 909 Rocket 4.4 17:45:55 10° SSW 17:53:53 82° ESE 18:00:24 10° NNE
COBE Rocket 4.1 17:49:31 10° S 17:54:29 77° WSW 17:59:16 10° NNW
Cosmos 2263 Rocket 2.4 17:49:21 10° SSW 17:55:06 82° WNW 18:00:48 10° NNE
Cosmos 1908 3.6 17:51:42 10° NNE 17:55:27 43° E 17:59:12 10° SSE
SL-24 R/B 4.2 17:50:34 10° SSE 17:55:27 77° E 17:59:38 10° N
Ariane Rocket 4.2 17:59:41 10° S 18:04:38 46° WSW 18:09:31 10° NW
S3M 4.1 17:59:33 10° N 18:05:56 75° E 18:12:24 10° S
Abrixas 2.6 18:03:30 10° WSW 18:06:40 81° NW 18:09:46 10° NE
Cosmos 304 Rocket 4.3 18:05:08 10° NNW 18:09:53 62° WSW 18:14:43 10° SSE
Cosmos 2112 Rocket 4.3 18:15:45 10° NNW 18:21:06 77° WSW 18:26:31 10° SSE
ISS -0.1 18:20:32 10° W 18:22:30 15° NW 18:24:29 10° NNW
GPS 2-04 Rocket1 3.5 18:18:46 10° W 18:22:48 52° NNW 18:26:59 10° ENE
PAYLOAD A 4.0 18:19:02 10° SSE 18:24:01 56° E 18:28:46 10° N
Cosmos 1437 Rocket 4.0 18:20:15 10° NNW 18:24:15 46° WSW 18:28:17 10° S
Helios 1B rocket 2.9 18:20:10 10° N 18:24:19 68° WNW 18:28:30 10° SSW
CZ-2C R/B 2.8 18:21:50 10° SSE 18:26:08 36° E 18:30:21 10° NNE
COSMOS 2455 4.5 18:25:28 10° NE 18:28:08 13° ENE 18:28:22 13° E
Lacrosse 4 Rocket 3.1 18:27:41 10° NE 18:30:28 17° ENE 18:30:50 16° E
Meteor 1-4 Rocket 3.7 18:29:40 10° NE 18:32:29 22° E 18:32:47 22° E
YAOGAN 1 2.5 18:28:19 10° SSE 18:32:44 74° ENE 18:37:05 10° N
SJ-12 4.0 18:28:51 10° SSE 18:33:01 60° E 18:37:05 10° N
Cosmos 2360 Rocket 3.4 18:28:29 10° NW 18:33:50 42° WSW 18:39:14 10° S
Cosmos 1726 3.0 18:31:08 10° NNE 18:34:21 28° E 18:35:47 22° SE
Cosmos 1869 Rocket 4.2 18:30:21 10° S 18:34:33 35° ESE 18:38:42 10° NE
Cosmos 2084 3.5 18:30:08 10° SSW 18:34:48 73° SE 18:39:09 10° NE
Cosmos 292 Rocket 3.9 18:32:25 10° N 18:37:10 58° ENE 18:41:59 10° SSE
SPOT 3 Rocket 3.7 18:32:30 10° S 18:37:48 78° WSW 18:43:02 10° NNW
USA 234 4.0 18:31:36 10° NNE 18:37:59 57° NW 18:44:28 10° SW
Cosmos 1980 4.3 18:33:46 10° NNE 18:38:49 34° ENE 18:42:09 19° SE
Cosmos 1151 Rocket 3.4 18:34:55 10° NNW 18:39:16 68° W 18:43:40 10° S
CZ-4 R/B 4.4 18:36:33 10° SSE 18:40:45 63° E 18:44:51 10° N
Cosmos 1300 3.0 18:37:17 10° NNE 18:41:00 46° E 18:44:14 13° SSE
Lacrosse 5 rocket 2.7 18:37:46 10° SSW 18:41:43 26° SE 18:42:46 23° ESE
Cosmos 2237 Rocket 2.8 18:39:01 10° NNE 18:44:03 34° ENE 18:46:49 22° ESE
Cosmos 1745 Rocket 4.3 18:39:03 10° SSW 18:45:21 70° W 18:51:31 10° N
Cosmos 1626 4.1 18:45:15 10° SSW 18:48:42 32° W 18:52:05 10° NNW
Cosmos 1709 Rocket 4.0 18:44:44 10° S 18:50:52 57° E 18:56:53 10° NNE
ATLAS 3B R/B 4.0 18:48:44 10° NE 18:51:25 16° ENE 18:51:25 16° ENE
Lacrosse 5 2.8 18:48:52 10° SSW 18:53:18 28° SE 18:54:08 27° SE
Cosmos 2333 Rocket 2.3 18:52:50 10° N 18:58:24 54° ENE 19:01:43 24° SE
IDEFIX/ARIANE 42P 2.5 19:00:43 10° SSE 19:06:05 82° ENE 19:11:23 10° N
Cosmos 2242 Rocket 3.8 19:04:12 10° NNE 19:08:35 49° E 19:09:00 47° ESE
CZ-4 R/B 3.6 19:06:27 10° SSW 19:09:42 25° WSW 19:12:57 10° NW
Cosmos 1271 Rocket 2.7 19:06:05 10° N 19:10:03 65° E 19:10:32 59° SE
SMAP 3.9 19:05:31 10° S 19:10:05 51° WSW 19:14:37 10° NNW
Cosmos 2278 Rocket 2.5 19:05:32 10° S 19:11:00 44° ESE 19:12:02 40° E
COSMOS 2428 3.8 19:06:14 10° NW 19:11:42 44° WSW 19:17:14 10° S
Cosmos 1484 Rocket 3.2 19:13:09 47° NE 19:13:09 47° NE 19:16:29 10° N
Cosmos 1844 3.6 19:08:00 10° SSW 19:13:40 72° ESE 19:19:18 10° NNE
NOSS 0 Rocket 3.8 19:08:31 10° NNW 19:14:45 78° ENE 19:18:42 24° SSE
Cosmos 192 4.4 19:11:52 10° N 19:16:42 54° ENE 19:17:05 52° E
Cosmos 2219 Rocket 2.3 19:11:58 10° NNW 19:17:40 77° WSW 19:21:52 19° SSE
Cosmos 2056 Rocket 3.7 19:12:25 10° SSW 19:17:54 78° WNW 19:23:14 10° NNE
DELTA 2 R/B (1) 3.5 19:14:16 10° WNW 19:19:53 89° N 19:21:18 53° ESE
Meteor 2-11 Rocket 4.3 19:14:25 10° N 19:20:29 76° E 19:26:39 10° S
Meteor 2-3 Rocket 3.6 19:15:39 10° S 19:21:32 81° E 19:27:17 10° N
Cosmos 1707 Rocket 4.0 19:17:45 10° NNW 19:22:12 63° W 19:26:28 11° S
Cosmos 1844 Rocket 3.0 19:18:18 10° SSW 19:24:00 70° WNW 19:29:38 10° NNE
SAR-Lupe-1 4.3 19:24:31 68° NW 19:24:31 68° NW 19:27:44 10° NNW
MSX 3.7 19:20:57 13° SSE 19:26:11 79° ENE 19:31:58 10° N
SL-16 R/B 3.4 19:51:26 10° N 19:54:21 31° N 19:54:21 31° N
CZ-3B R/B 4.4 19:48:35 10° NW 20:01:37 79° WSW 20:01:37 79° WSW
Cosmos 2184 Rocket 4.4 20:01:30 10° S 20:16:12 - N 20:06:16 54° SSW
Lacrosse 4 Rocket 3.3 20:04:42 10° NW 20:07:15 29° WNW 20:07:15 29° WNW
COSMOS 2455 3.4 20:07:11 10° NNW 20:11:36 51° NW 20:11:36 51° NW
Lacrosse 5 rocket 3.8 20:16:46 10° SW 20:18:33 22° WSW 20:18:33 22° WSW
Cosmos 2237 Rocket 3.7 20:23:07 10° WNW 20:28:05 31° WSW 20:28:43 30° SW
Lacrosse 5 4.0 20:31:31 10° SW 20:33:22 22° WSW 20:33:22 22° WSW
ATLAS 3B R/B 4.0 20:35:56 10° NW 20:38:45 28° NW 20:38:45 28° NW
Cosmos 2333 Rocket 4.3 20:38:41 10° WNW 20:43:00 22° SW 20:43:48 21° SW
Cosmos 2278 Rocket 4.3 20:50:19 10° SW 20:54:01 23° W 20:54:01 23° W
